TimeEST,TemperatureF,Dew PointF,Humidity,Sea Level PressureIn,VisibilityMPH,Wind Direction,Wind SpeedMPH,Gust SpeedMPH,PrecipitationIn,Events,Conditions,WindDirDegrees,DateUTC
12:54 AM,27.0,21.9,81,30.16,7.0,Calm,Calm,-,N/A,,Overcast,0,2013-01-06 05:54:00
1:54 AM,28.0,21.9,78,30.14,7.0,Calm,Calm,-,N/A,,Overcast,0,2013-01-06 06:54:00
2:54 AM,28.0,21.9,78,30.15,8.0,Calm,Calm,-,N/A,,Overcast,0,2013-01-06 07:54:00
3:54 AM,27.0,21.9,81,30.13,7.0,Calm,Calm,-,N/A,,Overcast,0,2013-01-06 08:54:00
4:54 AM,28.0,23.0,81,30.10,7.0,Calm,Calm,-,N/A,,Overcast,0,2013-01-06 09:54:00
5:54 AM,27.0,23.0,85,30.09,6.0,Calm,Calm,-,N/A,,Overcast,0,2013-01-06 10:54:00
6:54 AM,28.0,23.0,81,30.09,6.0,Calm,Calm,-,N/A,,Haze,0,2013-01-06 11:54:00
7:54 AM,28.0,23.0,81,30.10,5.0,Calm,Calm,-,N/A,,Haze,0,2013-01-06 12:54:00
8:54 AM,28.9,23.0,78,30.11,5.0,Calm,Calm,-,N/A,,Haze,0,2013-01-06 13:54:00
9:54 AM,28.9,23.0,78,30.10,5.0,Calm,Calm,-,N/A,,Haze,0,2013-01-06 14:54:00
10:54 AM,30.9,21.9,69,30.08,6.0,Calm,Calm,-,N/A,,Haze,0,2013-01-06 15:54:00
11:54 AM,33.1,23.0,66,30.05,6.0,Calm,Calm,-,N/A,,Haze,0,2013-01-06 16:54:00
12:54 PM,34.0,23.0,64,30.02,8.0,Calm,Calm,-,N/A,,Overcast,0,2013-01-06 17:54:00
1:54 PM,36.0,24.1,62,29.99,9.0,Calm,Calm,-,N/A,,Overcast,0,2013-01-06 18:54:00
2:54 PM,37.0,24.1,59,29.99,10.0,Calm,Calm,-,N/A,,Overcast,0,2013-01-06 19:54:00
3:54 PM,36.0,26.1,67,30.00,9.0,Calm,Calm,-,N/A,,Overcast,0,2013-01-06 20:54:00
4:54 PM,36.0,26.1,67,30.01,9.0,Calm,Calm,-,N/A,,Overcast,0,2013-01-06 21:54:00
5:54 PM,35.1,27.0,72,30.03,8.0,Calm,Calm,-,N/A,,Overcast,0,2013-01-06 22:54:00
6:54 PM,35.1,27.0,72,30.04,8.0,Calm,Calm,-,N/A,,Overcast,0,2013-01-06 23:54:00
7:54 PM,33.1,28.0,82,30.05,9.0,Calm,Calm,-,N/A,,Overcast,0,2013-01-07 00:54:00
8:54 PM,33.1,28.0,82,30.06,9.0,Calm,Calm,-,N/A,,Overcast,0,2013-01-07 01:54:00
10:54 PM,36.0,28.9,76,30.08,10.0,NW,6.9,-,N/A,,Overcast,310,2013-01-07 03:54:00
11:54 PM,37.0,28.9,73,30.10,10.0,West,9.2,-,N/A,,Overcast,270,2013-01-07 04:54:00